Date String (YYYY-MM-DD hh:mm:ss) UTC,Instrument flags,absolute air pressure of the measurement (hPa),sample flow rate (lpm),inlet stack bypass flow (lpm),air temperature of the measurement (°C),ambient temperature measured by the external sensor (°C),aerosol sample conditioner tube jacket temperature (°C),OPC LED temperature (°C),internal box temperature (°C),relative humidity of the measurement (%),span deviation,mass concentration of particles derived from Lorenz-Mie calculation of OPC scattering (μg/m³),mass concentration of particles derived from Lorenz-Mie calculation of OPC scattering (μg/m³),mass concentration of particles derived from Lorenz-Mie calculation of OPC scattering (μg/m³)
DateTimeUTC,F1_M11,P_M11,Q1_M11,Q2_M11,T1_M11,T2_M11,T3_M11,T4_M11,T5_M11,U1_M11,ZSPAN_M11,X0_M11,X2_M11,X1_M11
2023-08-13 14:00:00,SystemResetWarning,0836.4,5.00,000.00,029.5,028.4,000.0,038.0,031.3,26.3,0000.0,0010.48,0004.22,0003.69
2023-08-13 14:01:00,SystemResetWarning,0836.4,5.01,000.00,029.6,028.4,000.0,038.0,031.3,26.4,0000.0,0010.12,0004.21,0003.69
2023-08-13 14:02:00,SystemResetWarning,0836.4,5.00,000.00,029.6,028.5,000.0,038.1,031.3,26.2,0000.0,0010.56,0004.22,0003.69
2023-08-13 14:03:00,SystemResetWarning,0836.4,4.99,000.00,029.6,028.1,000.0,038.0,031.3,25.7,0000.0,0010.80,0004.19,0003.69
2023-08-13 14:04:00,SystemResetWarning,0836.4,5.00,000.00,029.6,026.4,000.0,037.9,030.9,25.5,0000.0,0010.84,0004.16,0003.68
2023-08-13 14:05:00,SystemResetWarning,0836.5,5.02,000.00,029.5,025.8,000.0,037.8,030.8,25.9,0000.0,0010.92,0004.13,0003.67
2023-08-13 14:06:00,SystemResetWarning,0836.5,5.00,000.00,029.4,026.0,000.0,037.8,030.7,25.7,0000.0,0011.76,0004.11,0003.65
2023-08-13 14:07:00,SystemResetWarning,0836.5,5.00,000.00,029.4,026.3,000.0,037.9,030.7,25.6,0000.0,0011.42,0004.14,0003.65
2023-08-13 14:08:00,SystemResetWarning,0836.5,5.00,000.00,029.4,026.6,000.0,037.9,030.8,25.7,0000.0,0011.08,0004.16,0003.64
2023-08-13 14:09:00,SystemResetWarning,0836.5,5.00,000.00,029.4,027.0,000.0,037.9,030.9,25.7,0000.0,0010.40,0004.18,0003.63
2023-08-13 14:10:00,SystemResetWarning,0836.6,5.00,000.00,029.4,027.3,000.0,037.9,031.0,25.9,0000.0,0010.33,0004.15,0003.62
2023-08-13 14:11:00,SystemResetWarning,0836.6,5.00,000.00,029.4,027.5,000.0,037.9,031.0,25.7,0000.0,0010.17,0004.13,0003.60
2023-08-13 14:12:00,SystemResetWarning,0836.6,5.00,000.00,029.4,027.7,000.0,038.0,031.1,25.6,0000.0,0010.49,0004.14,0003.60
2023-08-13 14:13:00,SystemResetWarning,0836.6,5.00,000.00,029.5,027.9,000.0,038.0,031.1,25.7,0000.0,0010.88,0004.13,0003.59
2023-08-13 14:14:00,SystemResetWarning,0836.7,5.00,000.00,029.5,028.1,000.0,038.0,031.1,25.8,0000.0,0010.64,0004.12,0003.58
2023-08-13 14:15:00,SystemResetWarning,0836.7,5.00,000.00,029.5,028.2,000.0,038.0,031.2,26.0,0000.0,0010.38,0004.13,0003.57
2023-08-13 14:16:00,SystemResetWarning,0836.6,5.00,000.00,029.5,028.3,000.0,038.0,031.2,25.8,0000.0,0010.14,0004.16,0003.55
2023-08-13 14:17:00,SystemResetWarning,0836.7,5.00,000.00,029.6,028.4,000.0,038.0,031.3,26.0,0000.0,0009.27,0004.17,0003.55
2023-08-13 14:18:00,SystemResetWarning,0836.7,5.00,000.00,029.6,028.5,000.0,038.1,031.3,26.0,0000.0,0009.18,0004.14,0003.54
2023-08-13 14:19:00,SystemResetWarning,0836.8,5.00,000.00,029.6,028.5,000.0,038.1,031.3,25.9,0000.0,0009.15,0004.12,0003.54
2023-08-13 14:20:00,SystemResetWarning,0836.8,4.98,000.00,029.6,027.3,000.0,038.0,031.1,26.0,0000.0,0009.17,0004.10,0003.54
2023-08-13 14:21:00,SystemResetWarning,0836.8,5.01,000.00,029.6,025.9,000.0,037.9,030.9,25.5,0000.0,0009.29,0004.13,0003.54
2023-08-13 14:22:00,SystemResetWarning,0836.8,5.00,000.00,029.5,025.8,000.0,037.8,030.8,25.6,0000.0,0009.20,0004.13,0003.54
2023-08-13 14:23:00,SystemResetWarning,0836.8,5.01,000.00,029.4,026.0,000.0,037.9,030.7,26.0,0000.0,0008.80,0004.10,0003.53
2023-08-13 14:24:00,SystemResetWarning,0836.8,5.00,000.00,029.4,026.4,000.0,037.9,030.8,26.6,0000.0,0007.97,0004.07,0003.52
2023-08-13 14:25:00,SystemResetWarning,0836.9,5.00,000.00,029.4,026.8,000.0,037.9,030.9,26.9,0000.0,0007.86,0004.11,0003.51
2023-08-13 14:26:00,SystemResetWarning,0836.9,5.00,000.00,029.4,027.1,000.0,037.9,031.0,26.7,0000.0,0007.92,0004.11,0003.51
2023-08-13 14:27:00,SystemResetWarning,0836.9,4.99,000.00,029.4,027.4,000.0,037.9,031.0,26.7,0000.0,0007.78,0004.09,0003.51
2023-08-13 14:28:00,SystemResetWarning,0837.0,4.99,000.00,029.4,027.6,000.0,038.0,031.1,27.0,0000.0,0007.81,0004.10,0003.51
2023-08-13 14:29:00,SystemResetWarning,0837.0,4.99,000.00,029.4,027.8,000.0,038.0,031.1,26.9,0000.0,0007.90,0004.13,0003.51
2023-08-13 14:30:00,SystemResetWarning,0837.0,5.01,000.00,029.5,028.0,000.0,038.0,031.1,26.7,0000.0,0007.97,0004.13,0003.50
2023-08-13 14:31:00,SystemResetWarning,0837.0,5.01,000.00,029.5,028.1,000.0,038.0,031.2,26.8,0000.0,0007.96,0004.12,0003.50
2023-08-13 14:32:00,SystemResetWarning,0837.0,4.99,000.00,029.5,028.2,000.0,038.0,031.2,26.8,0000.0,0007.88,0004.12,0003.50
2023-08-13 14:33:00,SystemResetWarning,0837.0,4.99,000.00,029.6,028.3,000.0,038.0,031.3,26.6,0000.0,0008.23,0004.10,0003.49
2023-08-13 14:34:00,SystemResetWarning,0837.1,5.01,000.00,029.6,028.4,000.0,038.1,031.3,26.8,0000.0,0008.40,0004.11,0003.49
2023-08-13 14:35:00,SystemResetWarning,0837.1,5.00,000.00,029.6,028.5,000.0,038.1,031.3,27.0,0000.0,0008.81,0004.13,0003.49
2023-08-13 14:36:00,SystemResetWarning,0837.2,4.99,000.00,029.6,027.4,000.0,038.0,031.2,26.5,0000.0,0009.52,0004.15,0003.49
2023-08-13 14:37:00,SystemResetWarning,0837.2,5.01,000.00,029.6,025.6,000.0,037.9,030.8,26.9,0000.0,0009.59,0004.12,0003.50
2023-08-13 14:38:00,SystemResetWarning,0837.1,5.00,000.00,029.5,025.0,000.0,037.8,030.6,26.6,0000.0,0009.46,0004.11,0003.48
2023-08-13 14:39:00,SystemResetWarning,0837.1,5.01,000.00,029.4,025.3,000.0,037.8,030.5,26.9,0000.0,0009.74,0004.11,0003.47
2023-08-13 14:40:00,SystemResetWarning,0837.1,5.00,000.00,029.3,025.7,000.0,037.8,030.6,27.0,0000.0,0010.78,0004.14,0003.47
2023-08-13 14:41:00,SystemResetWarning,0837.2,4.99,000.00,029.3,026.2,000.0,037.8,030.7,26.7,0000.0,0010.84,0004.13,0003.48
2023-08-13 14:42:00,SystemResetWarning,0837.2,5.00,000.00,029.3,026.6,000.0,037.8,030.8,26.9,0000.0,0010.97,0004.15,0003.48
2023-08-13 14:43:00,SystemResetWarning,0837.2,5.01,000.00,029.3,026.9,000.0,037.9,030.8,26.7,0000.0,0010.94,0004.13,0003.47
2023-08-13 14:44:00,SystemResetWarning,0837.2,5.00,000.00,029.3,027.2,000.0,037.9,030.9,26.3,0000.0,0010.64,0004.13,0003.47
2023-08-13 14:45:00,SystemResetWarning,0837.2,4.99,000.00,029.3,027.5,000.0,037.9,031.0,26.4,0000.0,0010.47,0004.13,0003.47
2023-08-13 14:46:00,SystemResetWarning,0837.2,5.00,000.00,029.3,027.7,000.0,037.9,031.0,26.7,0000.0,0010.74,0004.11,0003.47
2023-08-13 14:47:00,SystemResetWarning,0837.2,5.00,000.00,029.4,027.9,000.0,037.9,031.0,26.8,0000.0,0011.10,0004.11,0003.47
2023-08-13 14:48:00,SystemResetWarning,0837.2,4.99,000.00,029.4,028.0,000.0,037.9,031.1,26.6,0000.0,0010.68,0004.10,0003.48
2023-08-13 14:49:00,SystemResetWarning,0837.3,5.00,000.00,029.4,028.1,000.0,037.9,031.2,25.8,0000.0,0010.74,0004.10,0003.48
2023-08-13 14:50:00,SystemResetWarning,0837.2,5.00,000.00,029.5,028.3,000.0,037.9,031.2,26.0,0000.0,0010.63,0004.12,0003.49
2023-08-13 14:51:00,SystemResetWarning,0837.3,5.00,000.00,029.5,028.3,000.0,038.0,031.2,25.7,0000.0,0009.57,0004.10,0003.50
2023-08-13 14:52:00,SystemResetWarning,0837.3,5.00,000.00,029.5,028.4,000.0,038.0,031.3,25.5,0000.0,0009.52,0004.11,0003.51
2023-08-13 14:53:00,SystemResetWarning,0837.3,4.99,000.00,029.6,028.5,000.0,038.0,031.3,25.6,0000.0,0009.57,0004.10,0003.51
2023-08-13 14:54:00,SystemResetWarning,0837.3,4.99,000.00,029.6,028.6,000.0,038.0,031.3,25.5,0000.0,0010.37,0004.08,0003.52
2023-08-13 14:55:00,SystemResetWarning,0837.4,5.01,000.00,029.6,028.6,000.0,038.1,031.4,25.6,0000.0,0010.54,0004.09,0003.52
2023-08-13 14:56:00,SystemResetWarning,0837.4,5.01,000.00,029.7,028.7,000.0,038.1,031.4,25.7,0000.0,0010.73,0004.10,0003.53
2023-08-13 14:57:00,SystemResetWarning,0837.4,5.00,000.00,029.7,028.7,000.0,038.1,031.4,25.4,0000.0,0010.53,0004.15,0003.54
2023-08-13 14:58:00,SystemResetWarning,0837.5,4.99,000.00,029.8,028.8,000.0,038.2,031.5,25.4,0000.0,0009.45,0004.13,0003.55
2023-08-13 14:59:00,SystemResetWarning,0837.5,4.99,000.00,029.8,028.8,000.0,038.2,031.5,25.7,0000.0,0009.46,0004.12,0003.55
